Wind_Speed
15 15 15 14 13 12 12 9 7 5 2 2 3 3 3 3 3 3 8 1 7 18 15 9 5 5 3 1 1 2 3 6 7 4 9 10 9 4 4 12 8 6 8 21 21
15 14 14 15 13 12 11 9 7 5 3 3 3 3 2 3 4 9 5 6 10 18 13 8 6 5 2 1 2 3 5 7 6 5 10 11 5 10 9 11 10 9 16 22 21
14 14 15 15 14 12 11 8 7 5 4 3 3 2 2 1 7 4 9 11 16 16 9 4 4 4 2 3 2 2 8 5 4 6 10 10 7 5 12 9 11 15 20 21 20
15 16 16 15 14 12 10 8 7 5 3 4 3 2 1 3 1 4 11 13 18 12 7 2 1 4 1 2 3 4 5 3 5 8 10 8 9 9 1 5 8 17 21 21 17
15 16 16 16 15 12 9 7 7 5 2 4 4 3 2 6 4 4 13 18 14 8 5 3 3 6 5 2 1 1 7 10 10 7 9 8 8 6 5 8 15 20 19 18 16
16 18 17 16 14 12 8 7 5 3 3 4 4 4 4 5 2 13 16 16 10 7 2 2 5 7 5 3 4 3 12 13 10 10 8 9 9 2 6 11 15 17 16 15 15
18 20 17 16 14 10 7 5 2 2 4 5 4 3 6 6 3 15 17 12 7 8 3 6 6 7 3 5 2 11 14 13 9 8 4 7 8 3 13 14 15 15 14 13 14
20 21 18 16 13 9 5 2 2 4 6 6 4 3 3 2 9 16 13 9 5 5 6 2 4 3 3 4 7 9 10 9 8 9 6 7 9 9 14 15 15 15 14 13 14
22 21 18 15 10 7 2 4 6 6 6 6 2 6 7 9 13 16 12 9 7 2 3 1 4 2 5 8 8 7 5 2 7 8 5 10 3 9 14 14 14 15 14 14 14
23 21 17 13 8 3 5 6 7 7 5 2 4 5 7 8 15 14 12 13 3 4 5 4 1 1 3 8 6 5 5 3 3 7 7 8 10 8 12 14 14 14 15 15 15
23 21 15 11 7 2 9 3 5 5 7 5 7 5 12 15 16 13 13 12 4 5 5 2 7 4 4 8 3 7 4 5 2 2 7 8 8 6 12 15 14 14 16 16 16
22 19 14 9 4 5 6 4 6 5 4 2 1 4 12 20 10 13 14 11 9 8 6 4 5 3 3 3 6 3 6 4 3 3 8 6 10 8 11 16 16 16 16 18 18
22 17 10 6 5 5 3 2 0 4 4 6 3 8 12 11 12 17 15 7 9 8 9 3 3 0 4 5 7 8 6 5 10 4 5 7 14 6 12 15 15 15 15 18 19
21 13 6 1 4 5 3 1 6 4 6 10 10 8 8 7 7 19 19 8 6 8 5 5 3 5 2 3 5 2 4 4 6 6 3 2 2 8 8 14 17 18 17 17 18
17 10 3 11 1 4 3 4 3 4 5 9 9 5 10 13 12 14 20 14 12 6 6 6 7 5 7 6 4 7 3 1 2 4 6 10 6 7 7 7 13 17 19 18 18
14 5 6 5 2 1 4 2 4 6 2 8 8 12 14 13 7 10 13 13 8 11 10 9 1 5 5 4 1 3 4 4 3 5 9 6 5 5 4 4 3 7 13 17 17
6 5 10 9 4 2 2 5 5 5 3 7 12 12 17 11 8 11 16 18 12 10 13 14 13 11 9 5 5 9 10 8 6 8 5 5 5 7 6 2 1 4 7 11 18
10 12 9 3 1 2 6 5 5 3 2 3 5 11 13 10 14 9 12 15 19 12 10 6 11 16 14 16 10 11 13 6 10 12 6 7 4 1 3 3 3 1 4 7 12
8 6 4 3 2 1 6 6 2 1 1 2 8 12 11 7 6 12 12 12 12 14 15 8 11 6 6 3 7 8 9 15 14 18 11 13 9 10 11 7 2 3 6 6 9
2 8 6 3 4 6 6 2 1 2 3 4 8 5 14 12 12 10 13 3 9 7 12 13 14 13 6 4 5 11 8 7 11 15 19 11 11 9 7 8 4 1 5 6 6
2 2 3 6 3 5 6 1 1 1 3 3 2 5 6 5 12 11 6 6 3 5 7 11 11 14 7 11 14 9 12 12 10 10 11 13 8 9 3 3 2 4 5 5 5
4 2 3 3 4 1 3 1 1 2 2 3 2 1 4 5 7 8 8 2 3 2 6 6 7 11 16 6 4 12 18 17 12 11 11 10 12 6 6 7 5 6 9 8 8
2 3 2 4 2 3 3 3 2 4 2 4 3 2 1 4 5 3 3 5 3 3 2 1 6 10 14 11 9 10 12 14 17 16 14 14 11 5 4 7 7 10 7 8 8
3 2 3 3 1 3 1 2 3 1 2 2 2 3 5 4 1 3 6 4 3 4 3 1 12 12 13 17 5 11 9 10 14 12 16 16 12 11 6 6 9 9 9 9 8
4 3 3 1 4 3 3 2 2 3 1 3 4 6 5 5 5 5 4 5 7 7 3 6 14 15 17 18 13 14 14 12 14 16 15 14 9 8 6 7 10 11 7 11 9
3 3 1 1 2 5 3 1 4 1 3 5 7 3 4 6 5 6 5 7 8 4 7 5 12 10 16 17 12 15 10 11 11 11 10 10 4 3 8 12 12 11 10 11 11
5 1 4 3 2 4 2 4 2 5 3 2 5 5 7 3 6 7 8 9 9 9 12 8 10 8 15 7 10 12 15 7 5 6 8 9 9 8 10 10 11 13 13 12 13
Wind_Direction
347 347 345 344 348 349 344 340 334 330 308 266 257 277 291 303 270 204 233 258 166 157 149 155 194 185 217 202 224 249 187 117 127 145 129 147 134 110 102 135 159 142 154 142 148
347 346 343 343 347 344 339 337 329 320 294 261 254 264 302 316 244 235 236 183 170 160 158 166 177 188 211 191 171 277 100 82 78 83 138 157 145 122 143 143 146 147 121 142 154
350 345 342 340 343 338 333 334 326 311 292 253 248 251 284 218 228 157 201 171 171 153 159 141 235 254 253 228 103 58 58 32 70 87 137 135 136 133 146 162 162 162 152 156 163
348 344 342 340 341 334 328 329 319 303 279 243 228 202 210 218 157 95 161 163 165 156 170 193 178 258 289 93 59 210 70 70 98 120 127 137 125 144 189 52 147 156 156 161 170
348 344 340 337 338 331 324 320 309 298 245 227 204 180 148 206 55 141 152 151 161 184 189 201 276 313 30 37 133 18 93 99 102 119 121 125 120 96 80 119 137 148 161 168 174
349 344 341 337 337 329 320 311 310 283 203 198 198 181 239 184 62 151 150 153 168 179 158 39 319 325 313 33 320 110 106 112 117 129 137 141 142 160 120 138 146 159 171 177 179
351 345 341 337 336 325 318 308 297 189 165 172 185 185 244 64 133 157 161 164 174 188 251 249 311 286 321 138 141 134 122 119 133 152 137 156 170 142 151 159 162 174 177 180 182
346 342 338 336 335 327 327 308 147 143 148 158 174 222 70 5 145 154 159 164 182 207 257 260 285 295 322 135 173 175 177 161 150 175 157 231 124 146 166 173 174 181 179 183 189
345 339 336 338 339 336 33 115 114 119 135 138 176 250 104 122 156 158 164 156 140 167 161 161 288 348 182 196 171 210 141 201 164 208 149 230 24 144 175 186 181 182 184 188 187
343 339 337 342 340 349 130 127 118 107 133 169 254 227 163 175 153 163 173 163 156 152 158 204 309 331 221 212 207 176 189 165 172 183 223 228 258 148 190 197 192 189 189 192 195
343 339 339 339 338 149 139 149 195 168 208 345 111 78 134 135 149 176 166 181 213 206 175 237 232 214 250 197 342 274 241 237 191 144 257 255 263 246 193 209 201 197 193 199 202
340 336 339 338 344 159 171 264 37 1 170 165 176 121 141 156 162 171 177 194 202 203 108 195 268 124 150 247 266 264 221 218 105 246 258 267 269 251 215 214 210 205 201 200 201
338 331 335 339 138 137 218 68 314 333 249 144 159 160 166 193 172 174 194 202 226 218 207 248 150 348 272 269 261 235 271 118 272 155 255 282 262 254 207 222 215 211 208 208 206
335 323 326 33 139 163 151 246 294 233 215 147 185 170 170 208 197 175 196 207 211 250 233 289 136 242 330 274 290 303 43 263 241 238 286 278 301 199 224 209 216 216 210 208 210
330 311 257 182 24 204 87 327 152 228 211 140 149 126 159 196 126 189 198 213 250 187 240 112 187 196 305 26 315 33 328 90 188 248 275 179 263 112 174 222 226 221 218 217 209
328 290 168 163 205 236 327 197 236 230 169 155 155 177 176 201 168 141 189 226 269 260 232 267 226 287 16 350 277 130 151 163 191 282 249 85 279 136 79 104 117 203 227 227 224
27 124 150 143 121 311 283 220 220 253 144 158 179 183 197 184 171 182 192 200 221 220 234 226 243 235 228 206 192 224 228 255 229 210 284 99 263 309 339 194 239 277 274 254 226
81 102 102 131 302 332 215 225 241 52 170 121 206 198 204 187 215 191 203 213 218 264 278 251 226 207 197 227 251 224 282 283 296 292 311 154 265 105 48 106 117 84 345 315 235
92 96 99 38 39 271 230 218 13 124 33 204 177 200 194 202 250 213 226 235 238 210 252 265 255 257 226 224 252 220 238 265 272 250 266 280 253 245 213 218 177 26 39 40 26
102 121 76 351 328 232 231 312 147 355 318 220 229 234 214 206 205 209 203 211 233 241 249 263 265 248 200 225 206 265 334 237 223 259 273 266 264 262 253 188 147 85 62 57 58
230 155 46 335 279 221 234 102 215 98 291 285 211 201 247 195 225 210 216 119 222 172 239 252 246 267 180 219 248 190 228 235 282 291 294 288 283 27 24 49 147 94 89 85 81
292 145 10 324 203 272 219 345 14 228 168 234 270 325 223 208 206 218 219 258 137 205 217 203 275 262 265 300 291 272 282 272 259 253 239 273 278 55 77 82 80 90 78 63 60
18 70 50 278 246 163 127 187 263 243 200 197 174 292 210 165 202 235 197 116 161 251 326 143 254 278 258 213 215 241 245 253 262 265 264 281 286 104 98 110 94 100 88 87 80
283 187 127 76 30 320 346 69 172 142 199 241 143 204 187 190 208 188 209 167 193 268 10 278 270 273 278 298 330 290 270 254 268 263 262 259 257 157 150 149 121 111 120 117 114
355 61 13 49 93 4 321 319 248 166 187 223 185 247 222 226 225 232 235 246 221 142 234 274 270 274 274 273 281 272 280 269 254 265 282 298 317 61 159 177 147 138 161 130 129
6 334 191 47 300 283 168 82 312 38 278 182 257 195 213 259 288 318 296 276 283 179 262 236 269 278 273 271 262 265 241 244 245 259 263 269 253 102 112 119 146 152 165 146 148
31 24 289 118 265 261 48 348 329 323 186 311 318 251 229 17 342 328 301 295 284 284 284 274 277 256 271 259 239 236 232 229 278 262 308 292 48 129 140 156 165 168 180 169 164
Height
800 797 794 792 791 788 786 784 783 782 781 781 780 780 779 779 779 779 776 774 776 778 781 784 783 783 781 777 775 772 776 788 786 785 792 785 791 789 790 798 798 799 800 808 819
800 796 794 791 790 787 785 783 782 781 780 780 780 779 779 779 779 776 774 774 775 778 782 783 783 782 778 776 773 771 778 780 771 774 784 786 786 793 796 799 803 803 804 813 820
799 796 793 790 788 786 783 782 781 780 779 779 779 779 778 778 776 767 772 774 777 780 783 785 784 781 776 772 772 773 778 776 774 770 775 784 789 787 793 800 797 804 808 814 818
798 795 792 789 787 785 782 781 780 778 778 778 778 778 778 779 782 770 773 776 779 783 784 784 784 780 774 775 770 775 771 771 774 773 780 789 787 792 790 789 788 797 806 812 816
797 794 791 788 785 783 781 779 778 778 777 777 777 778 778 774 772 773 775 778 782 785 783 782 787 777 778 775 775 775 772 771 774 778 780 786 792 795 798 791 794 802 807 810 813
795 792 789 786 783 781 779 778 777 777 776 777 777 778 778 774 776 776 779 781 783 784 783 784 781 776 775 777 778 774 771 781 782 784 785 791 795 791 800 797 801 805 808 810 812
794 791 787 784 781 779 777 776 776 776 776 777 778 778 774 774 776 778 781 783 784 785 785 782 780 776 774 779 774 771 784 782 785 786 791 785 802 797 795 797 803 807 808 810 813
792 788 785 782 779 777 776 775 775 776 776 776 778 780 771 775 776 779 782 784 784 784 782 782 780 776 779 774 776 779 777 795 789 786 789 789 801 795 793 796 802 805 807 811 813
790 786 783 780 778 776 775 775 776 776 777 777 779 777 774 777 777 778 780 781 783 782 782 781 779 777 779 781 789 786 797 798 799 782 788 793 795 790 791 794 798 802 805 808 811
788 783 780 778 776 775 775 776 777 777 779 780 779 777 776 772 774 777 780 781 782 779 780 780 787 794 785 787 811 796 796 792 795 787 788 793 793 787 789 792 795 797 801 804 807
785 781 778 776 775 774 775 778 778 778 776 764 761 764 765 769 776 776 778 779 778 781 785 790 788 798 785 790 778 782 788 797 786 785 790 790 789 780 785 787 790 793 797 800 802
783 779 776 774 773 773 774 768 769 772 768 767 767 766 766 768 774 774 777 779 781 784 790 795 787 773 772 777 780 781 788 790 787 787 791 786 790 775 776 783 781 787 789 793 796
780 776 775 773 773 774 774 772 772 771 764 768 764 763 767 767 768 773 774 773 777 781 781 787 783 772 777 777 784 777 783 791 796 792 792 797 790 780 773 775 777 778 781 784 788
776 773 773 772 776 774 772 772 771 771 770 775 768 763 764 762 771 764 769 771 775 782 778 776 767 776 777 782 776 782 775 781 787 797 803 791 807 789 775 776 775 776 776 779 782
771 769 770 772 773 770 774 772 771 770 800 766 764 761 757 766 759 767 765 768 778 777 781 782 776 777 780 780 772 783 774 779 784 788 792 788 796 776 776 785 775 770 771 772 774
766 765 767 771 772 773 772 772 772 781 797 775 759 765 769 762 763 764 767 765 762 772 771 773 760 773 771 772 771 773 780 780 781 781 796 782 790 775 768 775 770 766 768 768 771
764 764 766 769 769 771 771 769 780 786 768 774 769 761 762 767 768 767 776 782 784 798 790 772 774 761 765 781 776 778 781 798 802 794 794 781 792 773 759 761 771 774 770 766 765
767 766 769 770 771 771 771 771 796 774 770 761 762 760 769 761 764 767 771 778 767 770 780 789 795 768 761 770 776 780 776 803 832 806 784 782 796 774 759 764 769 776 777 765 762
770 771 773 773 771 771 766 782 776 773 767 768 766 772 771 767 770 770 772 770 761 764 788 786 790 754 762 759 765 772 796 764 783 774 793 776 762 752 748 761 769 775 780 779 778
773 768 772 773 772 770 770 785 772 766 764 764 773 767 773 770 776 773 771 764 768 764 758 772 794 763 759 760 763 770 762 788 779 815 815 782 776 776 758 757 769 781 789 792 789
771 764 774 773 772 765 775 772 771 762 765 767 768 769 765 769 766 767 766 769 766 769 765 764 777 772 764 771 771 773 778 773 771 777 798 800 777 745 751 756 767 783 793 795 794
768 770 774 772 771 772 772 775 783 765 762 763 762 763 765 767 768 768 771 765 764 763 774 764 767 779 768 745 752 757 764 759 778 790 772 781 780 755 760 768 776 788 799 804 804
770 770 773 771 774 773 772 771 770 766 766 764 765 762 762 768 780 770 768 763 764 765 769 765 771 788 775 756 758 766 755 755 752 753 775 788 772 764 772 774 786 801 807 808 810
773 775 770 771 776 775 778 776 773 766 766 764 763 761 765 771 768 775 772 765 764 763 778 772 768 779 791 775 775 775 762 761 761 771 764 758 754 768 776 779 796 805 807 807 809
780 787 790 780 777 779 778 777 775 773 764 762 767 763 767 777 775 775 770 767 761 780 770 769 782 773 767 765 770 775 773 763 771 760 769 754 759 760 765 776 795 803 805 802 807
786 790 785 784 786 781 788 778 779 773 772 769 769 765 765 773 771 778 771 769 774 765 770 764 784 778 781 766 772 774 765 769 765 762 763 757 758 764 767 780 795 803 804 803 807
801 800 794 799 783 784 780 783 780 778 768 767 766 766 770 768 768 764 763 763 766 776 774 773 776 784 787 763 775 789 769 768 763 760 760 766 767 765 778 782 789 792 795 795 800